GW3210 Weather Reports


time (UTC)temp
C
wind
direction
speed
KPH
gust
KPH
rain 1hr
cm
rain 24hr
cm
rain mn
cm
humidity
%
barometer
mb
20260506051116 14 0.0 1.6 0.00 0.00 0.00 62 1018.4
20260506050116 14 0.0 0.0 0.00 0.00 0.00 62 1018.3
20260506045116 14 0.0 0.0 0.00 0.00 0.00 63 1018.4
20260506044116 14 0.0 0.0 0.00 0.00 0.00 62 1018.1
20260506043116 14 0.0 0.0 0.00 0.00 0.00 62 1018.0
20260506042116 15 338 1.6 1.6 0.00 0.00 0.00 61 1017.9
20260506041116 15 0.0 1.6 0.00 0.00 0.00 60 1017.7
20260506040116 15 0.0 0.0 0.00 0.00 0.00 60 1017.6
20260506035116 15 0.0 0.0 0.00 0.00 0.00 60 1017.5
20260506034116 15 338 1.6 3.2 0.00 0.00 0.00 60 1017.5
20260506033116 15 0.0 1.6 0.00 0.00 0.00 60 1017.4
20260506032115 15 0.0 0.0 0.00 0.00 0.00 60 1017.4
20260506031116 15 0.0 1.6 0.00 0.00 0.00 59 1017.2
20260506030116 15 0.0 0.0 0.00 0.00 0.00 59 1017.3
20260506025115 15 0.0 1.6 0.00 0.00 0.00 58 1017.1
20260506024115 15 0.0 0.0 0.00 0.00 0.00 58 1017.0
20260506023136 16 338 1.6 1.6 0.00 0.00 0.00 58 1017.1
20260506022115 16 0.0 0.0 0.00 0.00 0.00 58 1017.0
20260506021116 16 0.0 1.6 0.00 0.00 0.00 58 1016.9
20260506020116 16 0.0 0.0 0.00 0.00 0.00 58 1017.0
20260506015116 16 338 1.6 3.2 0.00 0.00 0.00 58 1017.0
20260506014115 16 338 1.6 4.8 0.00 0.00 0.00 58 1017.1
20260506013115 16 0 1.6 4.8 0.00 0.00 0.00 58 1017.0
20260506012116 16 0.0 1.6 0.00 0.00 0.00 58 1017.1
20260506011115 16 0.0 1.6 0.00 0.00 0.00 58 1017.0
20260506010116 16 315 4.8 6.4 0.00 0.00 0.00 58 1017.0
20260506005118 16 315 3.2 4.8 0.00 0.00 0.00 57 1017.1
20260506004139 16 270 4.8 9.7 0.00 0.00 0.00 57 1017.1
20260506003116 16 338 4.8 6.4 0.00 0.00 0.00 57 1017.1
20260506002117 16 315 1.6 3.2 0.00 0.00 0.00 57 1017.2
20260506001118 16 315 3.2 4.8 0.00 0.00 0.00 57 1017.2
20260506000117 16 315 4.8 6.4 0.00 0.00 0.00 57 1017.3
20260505235117 16 315 3.2 6.4 0.00 0.00 0.00 56 1017.4
20260505234117 16 293 4.8 8.0 0.00 0.00 0.00 56 1017.4
20260505233117 16 315 1.6 3.2 0.00 0.00 0.00 57 1017.5
20260505232117 16 248 4.8 8.0 0.00 0.00 0.00 56 1017.5
20260505231117 16 270 8.0 11.3 0.00 0.00 0.00 56 1017.4
20260505230117 16 270 6.4 9.7 0.00 0.00 0.00 56 1017.4
20260505225117 16 270 6.4 11.3 0.00 0.00 0.00 55 1017.4
20260505224117 16 315 1.6 4.8 0.00 0.00 0.00 56 1017.5
20260505223117 16 315 3.2 4.8 0.00 0.00 0.00 55 1017.7
20260505222117 16 293 3.2 6.4 0.00 0.00 0.00 55 1017.7
20260505221138 16 315 4.8 4.8 0.00 0.00 0.00 54 1017.7
20260505220138 16 270 3.2 4.8 0.00 0.00 0.00 54 1017.8
20260505215137 16 338 3.2 3.2 0.00 0.00 0.00 56 1017.8
20260505214117 16 248 1.6 3.2 0.00 0.00 0.00 55 1017.9
20260505213117 16 270 8.0 11.3 0.00 0.00 0.00 55 1018.0
20260505212117 16 293 3.2 4.8 0.00 0.00 0.00 56 1018.0
20260505211117 16 293 1.6 3.2 0.00 0.00 0.00 56 1018.1
20260505210138 16 270 1.6 3.2 0.00 0.00 0.00 56 1018.1
20260505205117 16 315 4.8 8.0 0.00 0.00 0.00 55 1018.1
20260505204117 16 0.0 1.6 0.00 0.00 0.00 55 1018.3
20260505203117 16 293 4.8 9.7 0.00 0.00 0.00 56 1018.3
20260505202117 16 293 1.6 3.2 0.00 0.00 0.00 56 1018.2
20260505201116 16 315 3.2 6.4 0.00 0.00 0.00 56 1018.4
20260505200117 16 270 1.6 4.8 0.00 0.00 0.00 55 1018.4
20260505195117 15 315 1.6 4.8 0.00 0.00 0.00 57 1018.5
20260505194116 15 180 1.6 1.6 0.00 0.00 0.00 58 1018.5
20260505193116 15 248 4.8 6.4 0.00 0.00 0.00 57 1018.6
20260505192117 15 225 1.6 4.8 0.00 0.00 0.00 57 1018.6
20260505191116 15 248 3.2 4.8 0.00 0.00 0.00 57 1018.6
20260505190116 14 158 1.6 4.8 0.00 0.00 0.00 58 1018.6
20260505185117 14 293 3.2 4.8 0.00 0.00 0.00 59 1018.6
20260505184117 14 248 3.2 4.8 0.00 0.00 0.00 59 1018.7
20260505183137 14 248 4.8 8.0 0.00 0.00 0.00 58 1018.6
20260505182116 14 248 1.6 3.2 0.00 0.00 0.00 58 1018.6
20260505181117 14 270 4.8 6.4 0.00 0.00 0.00 59 1018.6
20260505180238 13 225 1.6 3.2 0.00 0.00 0.00 59 1018.5
20260505175117 13 180 1.6 3.2 0.00 0.00 0.00 59 1018.5
20260505174117 13 293 1.6 3.2 0.00 0.00 0.00 60 1018.6
20260505173117 13 158 3.2 3.2 0.00 0.00 0.00 60 1018.5
20260505172117 13 135 1.6 1.6 0.00 0.00 0.00 61 1018.4
20260505171117 13 135 3.2 4.8 0.00 0.00 0.00 61 1018.3
20260505170116 13 225 3.2 4.8 0.00 0.00 0.00 62 1018.3
20260505165116 12 113 1.6 3.2 0.00 0.00 0.00 64 1018.2
20260505164117 12 225 1.6 3.2 0.00 0.00 0.00 64 1018.2
20260505163117 12 135 4.8 4.8 0.00 0.00 0.00 64 1018.1
20260505162116 12 180 1.6 4.8 0.00 0.00 0.00 64 1018.0
20260505161116 12 225 1.6 3.2 0.00 0.00 0.00 65 1018.0
20260505160117 12 180 1.6 1.6 0.00 0.00 0.00 65 1017.9
20260505153116 12 225 3.2 4.8 0.00 0.00 0.00 65 1017.9
20260505152116 12 248 1.6 3.2 0.00 0.00 0.00 65 1017.8
20260505151117 12 225 1.6 3.2 0.00 0.00 0.00 65 1017.8
20260505150116 12 225 3.2 4.8 0.00 0.00 0.00 66 1017.7
20260505140116 11 158 3.2 6.4 0.00 0.00 0.00 66 1017.1
20260505130116 11 180 1.6 3.2 0.00 0.00 0.00 65 1016.8
20260505124116 11 158 1.6 3.2 0.00 0.00 0.00 65 1016.9
20260505123116 11 0.0 1.6 0.00 0.00 0.00 65 1016.8
20260505122116 11 0.0 1.6 0.00 0.00 0.00 66 1016.8
20260505121116 11 0.0 1.6 0.00 0.00 0.00 66 1016.7
20260505120136 11 180 1.6 3.2 0.00 0.00 0.00 66 1016.7
20260505115115 11 180 1.6 3.2 0.00 0.00 0.00 66 1016.6
20260505114116 11 180 1.6 3.2 0.00 0.00 0.00 66 1016.7
20260505113116 11 0.0 1.6 0.00 0.00 0.00 67 1016.6
20260505112116 11 180 1.6 1.6 0.00 0.00 0.00 67 1016.6
20260505111116 11 315 1.6 3.2 0.00 0.00 0.00 68 1016.6
20260505110115 11 0.0 0.0 0.00 0.00 0.00 68 1016.5
20260505102115 11 0.0 1.6 0.00 0.00 0.00 68 1016.2
20260505101116 11 293 1.6 3.2 0.00 0.00 0.00 68 1016.2
20260505100115 11 293 3.2 4.8 0.00 0.00 0.00 68 1016.2
20260505095116 11 270 3.2 4.8 0.00 0.00 0.00 68 1016.1
20260505094115 11 270 1.6 3.2 0.00 0.00 0.00 68 1016.1
20260505093116 11 270 3.2 4.8 0.00 0.00 0.00 68 1016.0
20260505092116 11 270 3.2 4.8 0.00 0.00 0.00 67 1015.9
20260505091116 11 293 1.6 3.2 0.00 0.00 0.00 67 1015.7
20260505090136 11 293 1.6 3.2 0.00 0.00 0.00 67 1015.6
20260505085116 11 293 3.2 4.8 0.00 0.00 0.00 66 1015.6
20260505084115 11 315 3.2 6.4 0.00 0.00 0.00 66 1015.5
20260505083116 12 293 3.2 6.4 0.00 0.00 0.00 66 1015.6
20260505082115 12 315 4.8 6.4 0.00 0.00 0.00 65 1015.5
20260505081117 12 293 3.2 6.4 0.00 0.00 0.00 66 1015.4
20260505080116 12 293 4.8 6.4 0.00 0.00 0.00 66 1015.4
20260505075117 12 293 6.4 8.0 0.00 0.00 0.00 66 1015.4
20260505074117 12 293 3.2 6.4 0.00 0.00 0.00 65 1015.3
20260505073117 12 270 3.2 4.8 0.00 0.00 0.00 65 1015.0
20260505072118 12 293 4.8 6.4 0.00 0.00 0.00 64 1014.9
20260505071118 12 293 4.8 6.4 0.00 0.00 0.00 64 1014.8
20260505070137 13 293 4.8 6.4 0.00 0.00 0.00 63 1014.7
20260505065116 13 293 4.8 6.4 0.00 0.00 0.00 63 1014.5
20260505064116 13 293 3.2 6.4 0.00 0.00 0.00 62 1014.3
20260505063136 13 293 3.2 4.8 0.00 0.00 0.00 61 1014.3
20260505062156 14 315 3.2 4.8 0.00 0.00 0.00 61 1014.3
20260505061116 14 293 3.2 8.0 0.00 0.00 0.00 60 1014.1
20260505060136 15 315 3.2 8.0 0.00 0.00 0.00 59 1014.1